Location: Campestrin
(46.4667°N, 11.7167°E)
Time: 10:15:38
(UTC+00:00)

Cosmos 2266 Rocket - Pass Details

Date: 18 April 2021
Orbit: 935 x 1007 km, 82.9° (Epoch: 07 May)

Event Time Altitude Azimuth Distance (km) Brightness Sun altitude
Rises 19:58:01 0° 354° (N) 3,744 7.8 -17.9°
Reaches altitude 10° 20:00:38 10° 358° (N) 2,785 7.0 -18.2°
Maximum altitude 20:06:57 59° 77° (ENE) 1,143 4.1 -19.1°
Enters shadow 20:09:47 33° 143° (SE) 1,612 4.6 -19.4°
